Weather History for Estevan, SK

Change the Weather History Date:

Sunday, May 5, 2013

  Actual Average Record
Temperature  
Mean Temperature 52 °F -  
Max Temperature 68 °F 56 °F 71 °F (1998)
Min Temperature 36 °F 33 °F 30 °F (2002)
Degree Days  
Heating Degree Days 13    
Growing Degree Days 2 (Base 50)    
Moisture  
Dew Point 32 °F    
Average Humidity 45    
Maximum Humidity 81    
Minimum Humidity 14    
Precipitation  
Precipitation 0.00 in - - ()
Sea Level Pressure  
Sea Level Pressure 30.23 in    
Wind  
Wind Speed 4 mph ()    
Max Wind Speed 8 mph    
Max Gust Speed -    
Visibility 15.0 miles    
Events      
Averages and records for this station are not official NWS values.
T = Trace of Precipitation, MM = Missing Value Source: Averaged Metar Reports

Daily Weather History Graph

Daily Weather History Graph

Search for Another Location

Airport:

Trip Planner

Search our weather history database for the weather conditions in past years. The results will help you decide how hot, cold, wet, or windy it might be!

Date:

Astronomy

May. 05, 2013 Rise Set
Actual Time 5:23 AM CST 8:14 PM CST
Civil Twilight 4:46 AM CST 8:51 PM CST
Nautical Twilight 3:59 AM CST 9:38 PM CST
Astronomical Twilight 3:02 AM CST 10:36 PM CST
Moon 3:17 AM CST (5/5) 3:56 PM CST (5/5)
Length of Visible Light 16h 04m
Length of Day
14h 51m
Waning Crescent, 17% of the Moon is Illuminated
May 5
Waning Crescent
May 9
New
May 17
First Quarter
May 24
Full
May 31
Last Quarter

Hourly Weather History & Observations

Time (CST) Temp. Windchill Dew Point Humidity Pressure Visibility Wind Dir Wind Speed Gust Speed Precip Events Conditions
12:00 AM 44 °F - 35 °F 59% 30.32 in 15 mi South 3.5 mph - -  
12:00 AM 44.6 °F 43.1 °F 33.8 °F 66% 30.32 in 15.0 mi South 3.5 mph - N/A   Clear
1:00 AM 42.8 °F 40.1 °F 33.8 °F 70% 30.32 in 15.0 mi South 4.6 mph - N/A   Clear
2:00 AM 41.0 °F 38.0 °F 35.6 °F 81% 30.32 in 15.0 mi SW 4.6 mph - N/A   Clear
4:00 AM 39.2 °F - 33.8 °F 81% 30.31 in 15.0 mi SW 2.3 mph - N/A   Clear
5:00 AM 37.4 °F 33.8 °F 32.0 °F 81% 30.31 in 15.0 mi WSW 4.6 mph - N/A   Clear
6:00 AM 37 °F - 33 °F 79% 30.30 in 15 mi West 3.5 mph - -  
6:00 AM 37.4 °F 34.9 °F 32.0 °F 81% 30.30 in 15.0 mi West 3.5 mph - N/A   Clear
7:00 AM 44.6 °F 42.2 °F 33.8 °F 66% 30.30 in 15.0 mi WSW 4.6 mph - N/A   Partly Cloudy
8:00 AM 51.8 °F - 32.0 °F 47% 30.30 in 15.0 mi WSW 4.6 mph - N/A   Partly Cloudy
9:00 AM 57.2 °F - 32.0 °F 38% 30.29 in 15.0 mi West 6.9 mph - N/A   Partly Cloudy
10:00 AM 60.8 °F - 30.2 °F 31% 30.27 in 15.0 mi West 3.5 mph - N/A   Clear
11:00 AM 62.6 °F - 30.2 °F 30% 30.27 in 15.0 mi SW 3.5 mph - N/A   Partly Cloudy
12:00 PM 65 °F - 31 °F 17% 30.25 in 15 mi West 3.5 mph - -   Scattered Clouds
12:00 PM 64.4 °F - 30.2 °F 28% 30.25 in 15.0 mi West 3.5 mph - N/A   Partly Cloudy
1:00 PM 64.4 °F - 30.2 °F 28% 30.23 in 15.0 mi Calm Calm - N/A   Partly Cloudy
2:00 PM 68.0 °F - 30.2 °F 24% 30.21 in 15.0 mi SSE 4.6 mph - N/A   Partly Cloudy
3:00 PM 66.2 °F - 30.2 °F 26% 30.18 in 15.0 mi SW 2.3 mph - N/A   Partly Cloudy
4:00 PM 66.2 °F - 28.4 °F 24% 30.17 in 15.0 mi WSW 3.5 mph - N/A   Partly Cloudy
5:00 PM 68.0 °F - 30.2 °F 24% 30.14 in 15.0 mi West 3.5 mph - N/A   Partly Cloudy
6:00 PM 67 °F - 29 °F 14% 30.13 in 15 mi WNW 4.6 mph - -   Scattered Clouds
6:00 PM 68.0 °F - 28.4 °F 23% 30.13 in 15.0 mi WNW 4.6 mph - N/A   Partly Cloudy
7:00 PM 66.2 °F - 30.2 °F 26% 30.12 in 15.0 mi West 3.5 mph - N/A   Partly Cloudy
8:00 PM 60.8 °F - 32.0 °F 34% 30.12 in 15.0 mi SSW 2.3 mph - N/A   Partly Cloudy
9:00 PM 53.6 °F - 33.8 °F 47% 30.11 in 15.0 mi South 8.1 mph - N/A   Partly Cloudy
10:00 PM 51.8 °F - 32.0 °F 47% 30.11 in 15.0 mi South 8.1 mph - N/A   Clear
11:00 PM 48.2 °F - 32.0 °F 54% 30.11 in 15.0 mi South 4.6 mph - N/A   Clear